Terug naar catalogus

SL-8 R/B

ActiefPO
NORAD 11379·ROCKET BODY·🇷🇺 Russia

Gelanceerd May 31, 1979 vanaf Plesetsk Cosmodrome

Loading…

Volgende Passages (komende 24 uur)

TLE

VersSource: Space-Track

Epoch: Sep 14, 2026, 21:58 UTC

1 11379U 79046B   26257.91551019  .00000040  00000-0  24142-4 0  9991
2 11379  82.9455 316.2803 0022706 103.6083  18.5577 13.77781546338452

Volg SL-8 R/B in realtime met AllMySat

Download on the App Store